BEIDOU-3 IGSO-3 1 44709U 19073A 21056.60657433 -.00000121 00000-0 00000-0 0 9997 2 44709 58.0122 301.3077 0018762 191.9674 347.0930 1.00259351 5025 CZ-3B R/B 1 44710U 19073B 21056.47464149 .78309982 -96495-5 48366-3 0 9994 2 44710 27.9074 197.1391 0212845 228.3883 129.8309 16.14876265 20970